Jackson, MI

9:06 AM EST on December 15, 2019 (GMT -0500)
Jackson County-Reynolds

Weather History for KJXN - July, 2019

Change the Weather History Date:

Saturday, July 20, 2019

  Actual Average Record
Temperature  
Mean Temperature 83 °F 71 °F  
Max Temperature 95 °F 82 °F 98 °F (1977)
Min Temperature 71 °F 60 °F 45 °F (1965)
Degree Days  
Heating Degree Days 0 0  
Month to date heating degree days 0 1  
Since 1 June heating degree days 58 56  
Since 1 July heating degree days 0 1  
Cooling Degree Days 18 7  
Month to date cooling degree days 223 138  
Year to date cooling degree days 326 301  
Since 1 June cooling degree days 316 264  
Growing Degree Days 34 (Base 50)    
Moisture  
Dew Point 71 °F    
Average Humidity 70    
Maximum Humidity 93    
Minimum Humidity 46    
Precipitation  
Precipitation 0.03 in 0.11 in 1.16 in (2005)
Month to date precipitation 1.64 2.23  
Year to date precipitation 18.36 16.10  
Sea Level Pressure  
Sea Level Pressure 29.88 in    
Wind  
Wind Speed 9 mph (SW)    
Max Wind Speed 25 mph    
Max Gust Speed 40 mph    
Visibility 10 miles    
Events Rain , Thunderstorm    
T = Trace of Precipitation, MM = Missing Value Source: NWS Daily Summary

Daily Weather History Graph

Daily Weather History Graph

Search for Another Location

Airport or City:

Astronomy

Jul. 20, 2019 Rise Set
Actual Time 6:18 AM EDT 9:09 PM EDT
Civil Twilight 5:45 AM EDT 9:41 PM EDT
Nautical Twilight 5:04 AM EDT 10:23 PM EDT
Astronomical Twilight 4:15 AM EDT 11:11 PM EDT
Moon 11:32 PM EDT (7/20) 9:44 AM EDT (7/20)
Length of Visible Light 15h 56m
Length of Day
14h 50m
Waning Gibbous, 87% of the Moon is Illuminated
Jul 20
Waning Gibbous
Jul 24
Last Quarter
Jul 31
New
Aug 7
First Quarter
Aug 15
Full

Hourly Weather History & Observations

Time (EDT) Temp. Heat Index Dew Point Humidity Pressure Visibility Wind Dir Wind Speed Gust Speed Precip Events Conditions
12:56 AM 82.9 °F 90.2 °F 75.0 °F 77% 29.85 in 10.0 mi SSW 11.5 mph - N/A   Clear
1:56 AM 82.0 °F 88.6 °F 75.0 °F 79% 29.87 in 10.0 mi SW 11.5 mph - N/A   Clear
2:56 AM 81.0 °F 86.7 °F 75.0 °F 82% 29.90 in 10.0 mi SW 8.1 mph - N/A   Mostly Cloudy
3:56 AM 75.9 °F - 64.9 °F 69% 29.93 in 10.0 mi WNW 6.9 mph 16.1 mph N/A   Scattered Clouds
4:56 AM 73.9 °F - 66.0 °F 76% 29.92 in 10.0 mi Variable 5.8 mph - N/A   Clear
5:56 AM 78.1 °F - 63.0 °F 60% 29.92 in 10.0 mi NW 6.9 mph 18.4 mph N/A   Clear
6:56 AM 75.9 °F - 64.0 °F 67% 29.90 in 10.0 mi SW 4.6 mph - N/A   Clear
7:56 AM 75.0 °F - 64.9 °F 71% 29.81 in 10.0 mi South 9.2 mph - N/A   Clear
8:56 AM 77.0 °F - 66.0 °F 69% 29.83 in 10.0 mi SSW 10.4 mph - N/A   Clear
9:56 AM 77.0 °F - 68.0 °F 74% 29.87 in 10.0 mi SSW 9.2 mph - N/A   Clear
10:56 AM 84.9 °F 88.8 °F 69.1 °F 59% 29.86 in 10.0 mi SSW 8.1 mph - N/A   Clear
11:56 AM 90.0 °F 96.4 °F 71.1 °F 54% 29.87 in 10.0 mi South 11.5 mph 17.3 mph N/A   Clear
12:56 PM 91.0 °F 97.6 °F 71.1 °F 52% 29.85 in 10.0 mi SSW 16.1 mph 27.6 mph N/A   Clear
1:56 PM 93.0 °F 99.0 °F 70.0 °F 47% 29.85 in 10.0 mi SSW 17.3 mph 28.8 mph N/A   Clear
2:56 PM 93.0 °F 100.7 °F 72.0 °F 50% 29.85 in 10.0 mi SW 16.1 mph 26.5 mph N/A   Clear
3:56 PM 95.0 °F 106.7 °F 75.0 °F 52% 29.85 in 10.0 mi SSW 19.6 mph 28.8 mph N/A   Clear
4:56 PM 91.9 °F 103.9 °F 75.9 °F 59% 29.85 in 10.0 mi SSW 15.0 mph 24.2 mph N/A   Mostly Cloudy
5:56 PM 90.0 °F 101.3 °F 75.9 °F 63% 29.86 in 10.0 mi WNW 12.7 mph 24.2 mph N/A   Scattered Clouds
6:12 PM 78.1 °F - 71.1 °F 79% 29.93 in 10.0 mi WNW 12.7 mph 38.0 mph N/A   Mostly Cloudy
6:26 PM 73.9 °F - 72.0 °F 93% 29.94 in 4.0 mi NW 11.5 mph 20.7 mph 0.02 in Rain , Thunderstorm Light Rain
6:44 PM 73.9 °F - 72.0 °F 93% 29.93 in 10.0 mi NW 4.6 mph - 0.03 in Rain Light Rain
6:56 PM 73.9 °F - 71.1 °F 91% 29.90 in 10.0 mi Calm Calm - 0.03 in Rain Light Rain
7:56 PM 73.9 °F - 72.0 °F 93% 29.91 in 10.0 mi SSW 5.8 mph - 0.00 in   Clear
8:56 PM 73.0 °F - 72.0 °F 96% 29.90 in 10.0 mi Calm Calm - N/A   Clear
9:56 PM 73.0 °F - 71.1 °F 93% 29.81 in 10.0 mi SE 6.9 mph - N/A   Clear
10:56 PM 73.0 °F - 71.1 °F 93% 29.82 in 10.0 mi SSW 6.9 mph - N/A   Clear
11:56 PM 72.0 °F - 70.0 °F 93% 29.87 in 10.0 mi SSW 5.8 mph - N/A   Clear